TimeCDT,TemperatureF,Dew PointF,Humidity,Sea Level PressureIn,VisibilityMPH,Wind Direction,Wind SpeedMPH,Gust SpeedMPH,PrecipitationIn,Events,Conditions,WindDirDegrees,DateUTC
12:32 AM,15.8,8.6,73,29.68,7.0,West,15.0,21.9,0.00,Snow,Light Snow,270,2013-03-19 05:32:00
2:07 AM,12.2,5.0,73,29.70,10.0,West,15.0,-,0.00,,Overcast,280,2013-03-19 07:07:00
2:37 AM,12.2,5.0,73,29.71,10.0,West,12.7,26.5,0.00,,Overcast,280,2013-03-19 07:37:00
2:56 AM,12.0,3.9,70,29.76,10.0,West,19.6,25.3,0.00,,Overcast,280,2013-03-19 07:56:00
3:56 AM,10.9,3.9,73,29.78,10.0,WNW,17.3,26.5,0.00,,Overcast,290,2013-03-19 08:56:00
4:56 AM,10.9,3.0,70,29.80,10.0,West,17.3,24.2,N/A,,Overcast,280,2013-03-19 09:56:00
5:26 AM,10.4,3.2,73,29.76,10.0,WNW,20.7,29.9,N/A,,Scattered Clouds,290,2013-03-19 10:26:00
5:56 AM,10.0,1.9,70,29.83,10.0,West,19.6,26.5,N/A,,Clear,280,2013-03-19 10:56:00
6:56 AM,9.0,1.9,73,29.86,10.0,West,18.4,27.6,N/A,,Clear,280,2013-03-19 11:56:00
7:56 AM,9.0,1.0,70,29.89,10.0,West,17.3,27.6,N/A,,Clear,280,2013-03-19 12:56:00
8:56 AM,10.9,1.0,64,29.92,10.0,West,17.3,23.0,N/A,,Clear,280,2013-03-19 13:56:00
9:56 AM,12.9,1.9,62,29.95,10.0,WNW,16.1,-,N/A,,Clear,290,2013-03-19 14:56:00
10:56 AM,14.0,1.9,59,29.97,10.0,West,17.3,25.3,N/A,,Clear,280,2013-03-19 15:56:00
11:56 AM,17.1,3.9,56,29.98,10.0,West,16.1,27.6,N/A,,Clear,270,2013-03-19 16:56:00
1:56 PM,19.9,5.0,52,30.00,10.0,West,16.1,29.9,N/A,,Clear,270,2013-03-19 18:56:00
2:56 PM,21.0,5.0,50,30.00,10.0,West,18.4,25.3,N/A,,Clear,260,2013-03-19 19:56:00
3:56 PM,21.9,6.1,51,30.01,10.0,West,16.1,23.0,N/A,,Clear,270,2013-03-19 20:56:00
4:56 PM,21.9,6.1,51,30.04,10.0,West,16.1,23.0,N/A,,Clear,270,2013-03-19 21:56:00
5:56 PM,21.9,3.9,46,30.06,10.0,WNW,16.1,24.2,N/A,,Scattered Clouds,290,2013-03-19 22:56:00
6:56 PM,21.0,1.9,44,30.07,10.0,West,12.7,21.9,N/A,,Mostly Cloudy,280,2013-03-19 23:56:00
7:56 PM,18.0,1.9,50,30.09,10.0,West,12.7,-,N/A,,Clear,260,2013-03-20 00:56:00
8:56 PM,18.0,1.0,48,30.09,10.0,West,13.8,21.9,N/A,,Clear,270,2013-03-20 01:56:00
9:56 PM,15.1,-0.0,51,30.11,10.0,West,11.5,-,N/A,,Clear,270,2013-03-20 02:56:00
10:56 PM,12.9,-2.0,51,30.12,10.0,West,12.7,-,N/A,,Clear,270,2013-03-20 03:56:00
11:56 PM,10.0,-2.9,56,30.13,10.0,West,9.2,-,N/A,,Clear,270,2013-03-20 04:56:00